IW0GZ Weather Reports


time (UTC)temp
F
wind
direction
speed
knots
gust
knots
rain 1hr
in
rain 24hr
in
rain mn
in
humidity
%
barometer
mb
20260508024008 58 37 1.7 4.3 0.00 0.01 0.00 82 1011.5
20260508023004 58 45 2.6 3.5 0.00 0.01 0.00 82 1011.6
20260508022003 58 38 2.6 5.2 0.00 0.01 0.00 82 1011.6
20260508021003 58 38 1.7 5.2 0.00 0.01 0.00 81 1011.7
20260508020004 58 48 2.6 3.5 0.00 0.02 0.00 81 1011.7
20260508015003 58 50 2.6 4.3 0.00 0.02 0.00 81 1011.9
20260508014004 59 40 2.6 4.3 0.00 0.02 0.00 80 1012.0
20260508013004 59 44 2.6 4.3 0.00 0.02 0.00 80 1012.0
20260508012003 59 50 2.6 4.3 0.00 0.02 0.00 81 1012.1
20260508011003 58 45 3.5 5.2 0.00 0.02 0.00 81 1012.1
20260508010003 59 38 3.5 5.2 0.00 0.02 0.00 80 1012.1
20260508005004 59 34 2.6 4.3 0.00 0.03 0.00 80 1012.2
20260508004004 59 37 2.6 4.3 0.00 0.04 0.00 80 1012.2
20260508003004 59 45 2.6 5.2 0.00 0.06 0.00 80 1012.3
20260508002003 59 41 2.6 4.3 0.00 0.10 0.00 80 1012.4
20260508001003 59 42 1.7 3.5 0.00 0.13 0.00 81 1012.5
20260508000004 59 56 1.7 3.5 0.00 0.16 0.00 82 1012.6
20260507235003 59 54 2.6 3.5 0.00 0.18 0.00 82 1012.7
20260507234217 59 53 2.6 4.3 0.00 0.18 0.00 82 1012.8
20260507233003 59 43 2.6 4.3 0.00 0.18 0.00 82 1012.8
20260507232003 59 52 1.7 4.3 0.00 0.18 0.00 82 1012.9
20260507230004 60 22 4.3 7.0 0.00 0.18 0.00 78 1013.0
20260507225003 61 26 2.6 7.0 0.00 0.18 0.00 77 1013.2
20260507224003 60 50 2.6 5.2 0.00 0.18 0.00 78 1013.4
20260507223003 60 42 3.5 7.0 0.00 0.18 0.00 78 1013.4
20260507222004 61 32 4.3 7.0 0.00 0.18 0.00 77 1013.4
20260507221003 61 33 3.5 7.0 0.00 0.18 0.00 77 1013.4
20260507220010 61 28 3.5 6.1 0.00 0.18 0.00 76 1013.4
20260507215003 62 39 3.5 7.8 0.00 0.19 0.18 77 1013.6
20260507214003 63 5 3.5 6.1 0.00 0.20 0.18 73 1013.7
20260507213004 63 358 2.6 6.1 0.00 0.20 0.18 73 1013.8
20260507212215 63 350 2.6 4.3 0.00 0.21 0.18 73 1013.9
20260507211003 63 11 2.6 4.3 0.00 0.22 0.18 73 1013.9
20260507210004 63 5 1.7 6.1 0.00 0.23 0.18 72 1013.9
20260507205004 64 352 1.7 2.6 0.00 0.24 0.18 70 1013.9
20260507204003 64 330 1.7 3.5 0.00 0.24 0.18 70 1014.0
20260507203215 66 327 1.7 3.5 0.00 0.24 0.18 69 1014.0
20260507202004 67 354 1.7 3.5 0.00 0.24 0.18 63 1014.0
20260507201003 67 10 2.6 4.3 0.00 0.24 0.18 63 1014.0
20260507200004 68 31 2.6 3.5 0.00 0.24 0.18 62 1014.0
20260507195003 68 24 1.7 3.5 0.00 0.24 0.18 61 1014.0
20260507194003 68 27 1.7 4.3 0.00 0.24 0.18 62 1014.0
20260507193008 68 39 1.7 3.5 0.00 0.24 0.18 61 1014.0
20260507192003 68 49 1.7 2.6 0.00 0.24 0.18 61 1014.0
20260507191217 68 54 1.7 2.6 0.00 0.24 0.18 60 1013.9
20260507190005 69 27 1.7 3.5 0.00 0.24 0.18 60 1013.9
20260507185214 69 9 0.9 3.5 0.00 0.24 0.18 60 1013.8
20260507184215 70 325 0.9 1.7 0.00 0.24 0.18 59 1013.9
20260507183216 70 259 0.9 1.7 0.00 0.24 0.18 58 1013.9
20260507182004 71 326 0.9 3.5 0.00 0.24 0.18 55 1014.0
20260507181003 71 327 0.9 3.5 0.00 0.24 0.18 53 1014.0
20260507180214 71 316 0.9 1.7 0.00 0.24 0.18 52 1014.0
20260507175003 72 325 0.9 3.5 0.00 0.24 0.18 50 1014.1
20260507174004 72 317 0.9 1.7 0.00 0.26 0.18 48 1014.0
20260507173217 72 326 0.9 2.6 0.00 0.27 0.18 47 1014.0
20260507172004 72 326 0.9 5.2 0.00 0.27 0.18 45 1014.1
20260507171003 73 330 0.9 2.6 0.00 0.27 0.18 44 1013.9
20260507170215 73 352 0.9 2.6 0.00 0.27 0.18 43 1013.9
20260507165215 73 352 1.7 3.5 0.00 0.27 0.18 44 1013.9
20260507164003 73 28 3.5 5.2 0.00 0.27 0.18 44 1013.9
20260507163003 73 33 1.7 5.2 0.00 0.27 0.18 45 1013.8
20260507162003 74 36 2.6 5.2 0.00 0.27 0.18 49 1013.8
20260507161003 74 30 1.7 5.2 0.00 0.27 0.18 48 1013.9
20260507160003 75 36 0.9 6.1 0.00 0.27 0.18 51 1013.8
20260507155003 75 26 1.7 4.3 0.00 0.27 0.18 52 1013.7
20260507154004 74 46 2.6 6.1 0.00 0.27 0.18 52 1013.8
20260507153004 75 334 2.6 7.8 0.00 0.27 0.18 52 1013.8
20260507152214 75 336 2.6 6.1 0.00 0.27 0.18 52 1013.9
20260507151004 75 336 2.6 6.1 0.00 0.27 0.18 52 1014.0
20260507150004 74 27 2.6 6.1 0.00 0.27 0.18 53 1014.0
20260507145217 74 19 2.6 6.1 0.00 0.27 0.18 54 1014.1
20260507144003 74 28 1.7 7.0 0.00 0.27 0.18 54 1014.1
20260507143003 75 256 1.7 4.3 0.00 0.27 0.18 52 1014.2
20260507142004 75 286 2.6 6.1 0.00 0.27 0.18 51 1014.3
20260507141003 74 275 3.5 8.7 0.00 0.27 0.18 52 1014.6
20260507140004 75 273 1.7 9.6 0.00 0.27 0.18 53 1014.7
20260507135003 76 302 1.7 5.2 0.00 0.27 0.18 52 1014.8
20260507134213 76 334 1.7 5.2 0.00 0.27 0.18 52 1014.9
20260507133004 75 270 1.7 4.3 0.00 0.27 0.18 49 1015.1
20260507132004 73 272 2.6 5.2 0.00 0.27 0.18 55 1015.2
20260507131003 73 255 3.5 7.0 0.00 0.27 0.18 53 1015.2
20260507130217 73 276 2.6 8.7 0.00 0.27 0.18 56 1015.4
20260507125003 74 290 1.7 3.5 0.00 0.27 0.18 59 1015.6
20260507124214 72 286 2.6 5.2 0.00 0.27 0.18 60 1015.6
20260507123004 72 294 2.6 5.2 0.00 0.27 0.18 63 1015.7
20260507122004 72 258 0.9 5.2 0.00 0.27 0.18 63 1015.7
20260507121008 72 339 0.9 3.5 0.00 0.27 0.18 63 1015.8
20260507120004 71 312 1.7 2.6 0.00 0.27 0.18 62 1015.8
20260507115004 71 274 1.7 3.5 0.00 0.27 0.18 62 1015.8
20260507114003 71 295 1.7 4.3 0.00 0.27 0.18 64 1015.9
20260507113004 70 266 0.9 4.3 0.00 0.27 0.18 65 1016.0
20260507112003 70 290 0.9 4.3 0.00 0.27 0.18 66 1016.1
20260507111003 70 274 1.7 3.5 0.00 0.27 0.18 67 1016.1
20260507110004 70 207 1.7 3.5 0.00 0.27 0.18 67 1016.1
20260507105003 69 296 0.9 3.5 0.00 0.27 0.18 68 1016.4
20260507104215 69 288 0.9 3.5 0.00 0.27 0.18 68 1016.3
20260507103003 70 273 0.9 3.5 0.00 0.27 0.18 69 1016.4
20260507102003 69 256 1.7 4.3 0.00 0.27 0.18 70 1016.6
20260507101213 69 248 1.7 3.5 0.00 0.27 0.18 70 1016.6
20260507100004 68 254 0.9 4.3 0.00 0.27 0.18 67 1016.8
20260507095004 68 306 1.7 3.5 0.00 0.27 0.18 70 1016.7
20260507094216 68 326 1.7 3.5 0.00 0.27 0.18 71 1016.8
20260507093216 67 60 2.6 5.2 0.00 0.27 0.18 72 1016.7
20260507092004 67 32 1.7 7.0 0.00 0.27 0.18 72 1016.7
20260507091004 68 33 1.7 5.2 0.00 0.27 0.18 73 1016.6
20260507090004 66 18 2.6 4.3 0.00 0.27 0.18 74 1016.6
20260507085003 67 347 2.6 6.1 0.00 0.27 0.18 73 1016.7
20260507084004 68 41 0.9 6.1 0.00 0.27 0.18 71 1016.8
20260507083217 68 12 0.9 3.5 0.00 0.27 0.18 71 1016.8
20260507082004 68 257 0.9 2.6 0.00 0.27 0.18 74 1016.8
20260507081003 66 92 0.9 1.7 0.00 0.27 0.18 75 1017.0
20260507080004 66 60 0.9 2.6 0.00 0.27 0.18 77 1017.0
20260507075003 65 67 1.7 3.5 0.00 0.27 0.18 79 1017.0
20260507074004 64 53 1.7 3.5 0.00 0.27 0.18 81 1016.9
20260507073004 63 29 0.9 4.3 0.00 0.27 0.18 83 1017.0
20260507072214 62 344 0.9 4.3 0.00 0.27 0.18 85 1017.1
20260507071003 61 339 1.7 2.6 0.00 0.27 0.18 89 1017.1
20260507070216 61 341 1.7 3.5 0.00 0.27 0.18 91 1017.0
20260507065004 61 337 0.9 2.6 0.00 0.27 0.18 92 1017.0
20260507064004 61 44 1.7 3.5 0.00 0.27 0.18 95 1016.9
20260507063004 60 44 0.9 3.5 0.00 0.27 0.18 95 1016.8
20260507062003 60 33 0.9 2.6 0.00 0.27 0.18 96 1016.7
20260507061003 59 36 0.9 3.5 0.00 0.27 0.18 96 1016.6
20260507060004 58 66 1.7 3.5 0.00 0.27 0.18 96 1016.7
20260507055217 58 57 1.7 4.3 0.00 0.28 0.18 96 1016.7
20260507054003 57 54 0.9 3.5 0.00 0.29 0.18 96 1016.7
20260507053214 57 64 1.7 2.6 0.00 0.30 0.18 96 1016.6
20260507052004 56 80 1.7 2.6 0.00 0.30 0.18 96 1016.6
20260507051004 56 72 1.7 2.6 0.00 0.30 0.18 96 1016.6
20260507050005 56 62 1.7 2.6 0.00 0.30 0.18 96 1016.4
20260507045213 56 57 1.7 3.5 0.00 0.30 0.18 96 1016.4
20260507044003 56 59 0.0 2.6 0.00 0.30 0.18 96 1016.3
20260507043004 56 0 0.0 0.0 0.00 0.30 0.18 96 1016.6
20260507042004 56 75 0.0 0.9 0.00 0.30 0.18 96 1016.6
20260507041004 56 77 0.9 1.7 0.00 0.30 0.18 96 1016.4
20260507040004 56 301 0.9 2.6 0.00 0.30 0.18 96 1016.3
20260507035213 56 281 0.9 2.6 0.00 0.30 0.18 96 1016.3
20260507034004 56 113 0.0 1.7 0.01 0.30 0.18 96 1016.2
20260507033004 56 64 0.9 1.7 0.01 0.30 0.18 96 1016.3
20260507032003 56 77 0.0 2.6 0.01 0.30 0.18 96 1016.2
20260507031003 56 82 0.0 0.9 0.01 0.30 0.18 96 1016.2
20260507030003 56 116 1.7 3.5 0.02 0.30 0.18 96 1016.3
20260507025214 56 127 1.7 3.5 0.02 0.30 0.18 96 1016.2